Regional Weather Roundup
Issued by NWS

Home | Current Version | Previous Version | Text Only | Print | Product List | Glossary On
Versions: 1 2 3 4 5 6 7 8 9 10 11 12 13 14 15 16 17 18 19 20 21 22 23 24 25 26 27 28 29 30 31 32 33 34 35 36 37 38 39 40 41 42 43 44 45 46 47 48 49 50
008
ASUS45 KABQ 172010
RWRNM
NEW MEXICO REGIONAL WEATHER ROUNDUP
NATIONAL WEATHER SERVICE ALBUQUERQUE NM
100 PM MST SAT FEB 17 2018

NOTE: "FAIR" MEANS FEW OR NO CLOUDS BELOW 12,000 FEET AGL WITH NO
       SIGNIFICANT WEATHER OR OBSTRUCTIONS TO VISION.

      THIS PRODUCT IS RELEASED AS TWO VERSIONS.  ONE VERSION NEAR
      THE TOP OF THE HOUR CONTAINING PRELIMINARY DATA FROM ALBUQUERQUE
      AND OTHER STATIONS.  A FINAL VERSION WITH ADDITIONAL DATA IS
      ISSUED ABOUT 10 MINUTES AFTER THE HOUR.

NMZ501-503-504-510>518-172100-
NORTHWEST PLATEAU/NORTHCENTRAL MOUNTAINS

CITY           SKY/WX    TMP DP  RH WIND       PRES   REMARKS
FARMINGTON     FAIR      49  17  28 W8        30.20F
LOS ALAMOS     FAIR      46  19  33 S5        30.21F
SANTA FE       FAIR      51  20  29 NW5       30.18F
TAOS           FAIR      48  17  29 SW9       30.20F
ANGEL FIRE     FAIR      42  10  26 SW20G26   30.18F

$$
NMZ402-403-502-505>509-172100-
WESTCENTRAL MOUNTAINS/SOUTHWEST MOUNTAINS

CITY           SKY/WX    TMP DP  RH WIND       PRES   REMARKS
GALLUP         FAIR      51  20  29 VRB3      30.22F
GRANTS         FAIR      51  18  27 N10       30.22F
SILVER CITY    PTSUNNY   57  37  47 S9        30.20F

$$
NMZ407-409-411-412-172100-
SOUTHERN DESERTS

CITY           SKY/WX    TMP DP  RH WIND       PRES   REMARKS
DEMING         NOT AVBL
LAS CRUCES     FAIR      57  46  66 CALM      30.20F
ALAMOGORDO     FAIR      57  37  47 N12       30.19F
T OR C         FAIR      55  40  56 E5        30.18F

$$
NMZ519>523-172100-
CENTRAL VALLEYS/CENTRAL HIGHLANDS

CITY           SKY/WX    TMP DP  RH WIND       PRES   REMARKS
ALBUQUERQUE    PTSUNNY   53  22  29 VRB6      30.20F
DOUBLE EAGLE   MOSUNNY   52  21  30 NW12      30.21F
MORIARTY ARPT  FAIR      54  24  31 N7        30.20F
CLINES CORNERS FAIR      50  21  32 NW15      30.20F
BELEN          FAIR      52  26  37 NE3       30.21F
SOCORRO        FAIR      52  33  47 NE7       30.21F

$$
NMZ524>526-539-540-172100-
SOUTHCENTRAL MOUNTAINS

CITY           SKY/WX    TMP DP  RH WIND       PRES   REMARKS
RUIDOSO        NOT AVBL

$$
NMZ527>531-172100-
NORTHEAST HIGHLANDS/NORTHEAST PLAINS

CITY           SKY/WX    TMP DP  RH WIND       PRES   REMARKS
LAS VEGAS      FAIR      52  11  19 S18       30.15F
RATON          FAIR      57  11  16 S24G33    30.07F
CLAYTON        FAIR      52   7  16 E10       30.14F

$$
NMZ532>537-172100-
EASTCENTRAL PLAINS

CITY           SKY/WX    TMP DP  RH WIND       PRES   REMARKS
SANTA ROSA     FAIR      59  17  19 SE7G16    30.13F
TUCUMCARI      FAIR      58  15  18 E14G23    30.14F
CANNON AFB     FAIR      52  31  44 SE13      30.19F
CLOVIS AIRPORT NOT AVBL

$$
NMZ028-029-538-172100-
SOUTHEAST PLAINS

CITY           SKY/WX    TMP DP  RH WIND       PRES   REMARKS
ROSWELL        FAIR      61  36  39 W17G24    30.12F
ARTESIA        FAIR      59  46  63 CALM      30.16F
CARLSBAD       FAIR      59  51  75 S5        30.14F
HOBBS          SUNNY     63  28  27 N12G17    30.15F


$$




USA.gov is the U.S. government's official web portal to all federal, state and local government web resources and services.